EDDN

Nuremberg Airport

Airport
ICAO code
EDDN
IATA Code
NUE
Summary
ICAO Region
EUR
ICAO Territory
Location

Nuremberg, Bavaria, Germany,

Serving
Nuremberg
Elevation
1046 ft
Coordinates
49° 29' 51" N , 11° 4' 37" E
KCC
Airport WX
Fog
Metar
Observation
EDDN 040150Z AUTO 07003KT 030V100 9999 OVC008 02/00 Q1014
Station
Nuernberg
Date/Time
2022-12-04 01:50:00
Wind direction
70°
Wind speed
03 kts
Lowest cloud amount
overcast
Temperature
2°C
Dew point
0°C
Humidity
86%
QNH
1014 hPa
Weather condition
n/a

Description

International airport 5 km north of the city centre.

Climatology

Temperate Marine climate/Oceanic climate (Köppen climate classification Cfb). Moderately cool summer and comparatively warm winter with a temperature range of only 14°C. Prevailing south-westerly winds from the Atlantic Ocean.

Runways

Designator Length Width Surface Rops
10/28 2700 45 ASP Yes/Yes

SKYbrary Partners:

Safety knowledge contributed by: